User: anonymous   Login
Location: Washington
(38.8950°N, 77.0370°W)
Time: 23:31:32
(UTC-05:00)
Language:

IDEFIX/ARIANE 42P - Orbit

View from above orbital plane
View from above orbital plane
View from above satellite
View from above satellite

Ground track
Ground track

The orbit data is extracted from the following two-line orbital elements,

1 27422U 02021B   17054.88821725 -.00000042 +00000-0 -56946-6 0  9994
2 27422 098.2292 061.4343 0011660 207.9730 152.0827 14.29251505772380
Epoch (UTC): 23 February 2017 21:19:01
Eccentricity: 0.0011660
inclination: 98.2292°
perigee height: 786 km
apogee height: 802 km
right ascension of ascending node: 61.4343°
argument of perigee: 207.9730°
revolutions per day: 14.29251505
mean anomaly at epoch: 152.0827°
orbit number at epoch: 77238

The dashed part of the orbit path shows where the satellite is in the earth's shadow,  

DLR